Regional Weather Roundup
Issued by NWS Newport/Morehead, NC

Current Version | Previous Version | Text Only | Print | Product List | Glossary On
Versions: 1 2 3 4 5 6 7 8 9 10 11 12 13 14 15 16 17 18 19 20 21 22 23 24 25 26 27 28 29 30 31 32 33 34 35 36 37 38 39 40 41 42 43 44 45 46 47 48 49 50
000
ASUS42 KMHX 191710
RWRMHX
WEATHER ROUNDUP FOR EASTERN NORTH CAROLINA
NATIONAL WEATHER SERVICE NEWPORT/MOREHEAD CITY NC
100 PM EDT FRI SEP 19 2014

NOTE: "FAIR" INDICATES FEW OR NO CLOUDS BELOW 12,000 FEET
WITH NO SIGNIFICANT WEATHER AND/OR OBSTRUCTIONS TO VISIBILITY

NCZ015>017-031-032-045>047-102-103-191800-
NORTH COAST

CITY           SKY/WX    TMP DP  RH WIND       PRES   REMARKS
EDENTON        SUNNY     77  61  57 SE14G21   30.21S
ELIZABETH CITY SUNNY     77  59  53 E10       30.22S
KITTY HAWK     MOSUNNY   77  57  51 NE7       30.20S
MANTEO         MOSUNNY   76  58  53 NE13G20   30.21S

$$

NCZ045>047-081-094-103-104-191800-
CENTRAL COAST

CITY           SKY/WX    TMP DP  RH WIND       PRES   REMARKS
FRISCO         PTSUNNY   75  63  66 NE13G21   30.18R
SWANQUARTER      N/A     79 N/A N/A NE12G18   30.15S

$$

NCZ095-097-098-100-101-191800-
SOUTHERN COAST

CITY           SKY/WX    TMP DP  RH WIND       PRES   REMARKS
BEAUFORT       PTSUNNY   80  63  55 NE15G23   30.15S
CEDAR ISLAND     N/A     77 N/A N/A NE16G26   30.21S
JACKSONVILLE   PTSUNNY   79  63  57 E16       30.15S
NEWPORT        NOT AVBL
PINEY ISLAND   MOSUNNY   79  62  56 NE18G28   30.16F
WILMINGTON     PTSUNNY   80  66  62 NE21G30   30.13S


$$

NCZ011>013-027>030-043-044-078>080-089-090>093-098-191800-
COASTAL PLAIN

CITY           SKY/WX    TMP DP  RH WIND       PRES   REMARKS
AHOSKIE        SUNNY     76  60  57 E8        30.21F
CLINTON        SUNNY     80  60  50 NE6       30.16S
ELIZABETHTOWN  MOSUNNY   80  60  49 E7        30.14F
GOLDSBORO      SUNNY     80  61  53 NE15G22   30.15F
GREENVILLE     MOSUNNY   79  61  53 E14       30.19F
HAVELOCK       PTSUNNY   79  63  57 NE17G25   30.17S
KENANSVILLE    SUNNY     79  57  45 E6        30.17S
KINSTON        SUNNY     81  55  41 NE14      30.18F
NEW BERN       MOSUNNY   80  60  50 E10       30.18S
RICHLANDS      MOSUNNY   79  61  53 E10       30.16S
ROANOKE RAPIDS NOT AVBL
ROCKY MOUNT    MOSUNNY   79  59  50 NE10G17   30.19F
WASHINGTON     MOSUNNY   77  60  55 E13G18    30.19F
WHITEVILLE     PTSUNNY   79  65  62 NE12G17   30.13S

$$

AMZ130-135-150-152-154-156-158-170-250-252-270-ANZ085-086-088-633-658-670-191800-
MARINE OBSERVATIONS

STATION/POSITION TIME  TEMP    WIND        PRES    WAVE   SWELL
                       AIR SEA DIR/SP/G            HT/PER HT/PER
                 (UTC) (F)     (DEG/KT/KT) (MB)    (FT/S) (FT/S)
CHESAPEAKE LIGHT 1600   71      80/  9/ 10 1024.4
BUOY 44014       1700   73 76   60/ 12/ 16 1022.9    4/ 8   3/ 8
DUCK             1700   74 75   70/ 12/ 14 1022.6
2E DUCK          1700                        N/A     3/10   2/12
OREGON INLET     1700   75 73   40/ 14/ 18 1022.6
BUOY 44095       1700      75                N/A     5/ 5   2/13
20E OREGON INLET NOT AVBL
HATTERAS CG      1700   75 75   50/ 11/ 16 1022.2
DIAMOND BUOY     1700   78      50/ 17/ 23 1020.9    6/ 8   2/ 9
CAPE LOOKOUT     1600   77      50/ 22/ 25 1020.7
BEAUFORT LAB     1700   78 77   80/ 13/ 16 1020.5
30 SE NEW RIVER  1700   79 82   90/ 19/ 23 1020.1    5/ 6   2/ 9
5 SE WRIGHTSVILL 1600   74 80   60/ 19/ 23   N/A
BUOY 41002       1650   79 82   60/ 16/ 19 1018.4    4/ 5   2/ 9
BUOY 41004       1700   76 82   60/ 19/ 21 1017.4    4/ 6   2/10

$$



USA.gov is the U.S. government's official web portal to all federal, state and local government web resources and services.